TAM9907 SBCJ-SBBR

Flight info

Callsign TAM9907
Flight time N/A
Altitude 39000
Route ATOGU UL576 IBGAM UZ26 PADIL
Aircraft A20N/M-SDE2E3FGHIRWXY/LB1

Departure

Time N/A
Airport Carajás Airport (SBCJ)

Arrival

Time 2026-05-03 20:44
Airport Presidente Juscelino Kubitschek International Airport (SBBR)
Time Latitude Longitude Altitude Speed Heading
2026-05-03 20:15 -13.55421 -48.42414 38974 ft 457 kts 189°
2026-05-03 20:15 -13.61726 -48.43303 38972 ft 457 kts 189°
2026-05-03 20:16 -13.68091 -48.44201 38980 ft 457 kts 189°
2026-05-03 20:16 -13.74432 -48.45095 38984 ft 457 kts 190°
2026-05-03 20:17 -13.80766 -48.45989 38987 ft 457 kts 189°
2026-05-03 20:17 -13.87063 -48.46878 38991 ft 457 kts 190°
2026-05-03 20:18 -13.93398 -48.47772 38989 ft 457 kts 190°
2026-05-03 20:18 -13.99694 -48.48661 38992 ft 457 kts 190°
2026-05-03 20:19 -14.06025 -48.49556 38988 ft 457 kts 190°
2026-05-03 20:19 -14.09162 -48.49999 38772 ft 459 kts 190°
2026-05-03 20:19 -14.12367 -48.50452 37887 ft 460 kts 190°
2026-05-03 20:19 -14.15559 -48.50905 37164 ft 457 kts 190°
2026-05-03 20:20 -14.18258 -48.51280 36574 ft 455 kts 189°
2026-05-03 20:20 -14.21402 -48.51701 35787 ft 454 kts 189°
2026-05-03 20:20 -14.24516 -48.52112 35062 ft 452 kts 189°
2026-05-03 20:20 -14.27654 -48.52525 34354 ft 449 kts 189°
2026-05-03 20:21 -14.30729 -48.52929 33671 ft 447 kts 189°
2026-05-03 20:21 -14.33860 -48.53341 32977 ft 446 kts 189°
2026-05-03 20:21 -14.36917 -48.53744 32325 ft 444 kts 189°
2026-05-03 20:21 -14.40008 -48.54155 31663 ft 444 kts 189°
2026-05-03 20:22 -14.43075 -48.54561 31172 ft 439 kts 189°
2026-05-03 20:22 -14.46055 -48.54955 30737 ft 434 kts 189°
2026-05-03 20:22 -14.49071 -48.55354 30288 ft 429 kts 188°
2026-05-03 20:22 -14.52020 -48.55745 29805 ft 425 kts 188°
2026-05-03 20:23 -14.54923 -48.56130 29338 ft 421 kts 188°
2026-05-03 20:23 -14.57839 -48.56516 28881 ft 417 kts 188°
2026-05-03 20:23 -14.60679 -48.56893 28436 ft 413 kts 188°
2026-05-03 20:23 -14.63553 -48.57273 27985 ft 409 kts 188°
2026-05-03 20:24 -14.66340 -48.57642 27535 ft 406 kts 188°
2026-05-03 20:24 -14.69129 -48.58011 27076 ft 403 kts 188°
2026-05-03 20:24 -14.71931 -48.58382 26610 ft 401 kts 188°
2026-05-03 20:24 -14.74706 -48.58749 26143 ft 399 kts 188°
2026-05-03 20:25 -14.77457 -48.59115 25678 ft 397 kts 188°
2026-05-03 20:25 -14.80194 -48.59478 25206 ft 396 kts 188°
2026-05-03 20:25 -14.82900 -48.59837 24735 ft 395 kts 188°
2026-05-03 20:25 -14.85660 -48.60202 24248 ft 394 kts 187°
2026-05-03 20:26 -14.88377 -48.60563 23772 ft 393 kts 187°
2026-05-03 20:26 -14.91066 -48.60919 23295 ft 392 kts 187°
2026-05-03 20:26 -14.93786 -48.61280 22817 ft 391 kts 187°
2026-05-03 20:26 -14.96467 -48.61636 22340 ft 390 kts 187°
2026-05-03 20:27 -14.99179 -48.61995 21847 ft 390 kts 187°
2026-05-03 20:27 -15.01858 -48.62057 21358 ft 388 kts 173°
2026-05-03 20:27 -15.04480 -48.61417 20910 ft 384 kts 158°
2026-05-03 20:27 -15.06903 -48.60264 20483 ft 381 kts 152°
2026-05-03 20:28 -15.09250 -48.59027 20029 ft 378 kts 152°
2026-05-03 20:28 -15.11612 -48.57771 19579 ft 375 kts 152°
2026-05-03 20:28 -15.13917 -48.56554 19137 ft 372 kts 152°
2026-05-03 20:28 -15.16232 -48.55339 18697 ft 369 kts 152°
2026-05-03 20:29 -15.18502 -48.54153 18261 ft 366 kts 152°
2026-05-03 20:29 -15.20785 -48.52963 17820 ft 363 kts 152°
2026-05-03 20:29 -15.23041 -48.51788 17380 ft 360 kts 152°
2026-05-03 20:29 -15.25260 -48.50634 16949 ft 357 kts 152°
2026-05-03 20:30 -15.27492 -48.49475 16505 ft 354 kts 152°
2026-05-03 20:30 -15.29669 -48.48344 16074 ft 350 kts 152°
2026-05-03 20:30 -15.31862 -48.47203 15637 ft 348 kts 152°
2026-05-03 20:30 -15.34030 -48.46077 15203 ft 346 kts 151°
2026-05-03 20:31 -15.35968 -48.45070 14816 ft 343 kts 151°
2026-05-03 20:31 -15.38112 -48.43955 14383 ft 341 kts 151°
2026-05-03 20:31 -15.40229 -48.42854 13956 ft 337 kts 151°
2026-05-03 20:31 -15.42290 -48.41781 13535 ft 333 kts 150°
2026-05-03 20:32 -15.44362 -48.40702 13117 ft 330 kts 150°
2026-05-03 20:32 -15.46393 -48.39641 12705 ft 327 kts 150°
2026-05-03 20:32 -15.48443 -48.38572 12282 ft 325 kts 150°
2026-05-03 20:32 -15.50445 -48.37527 11861 ft 324 kts 150°
2026-05-03 20:33 -15.52478 -48.36465 11431 ft 322 kts 151°
2026-05-03 20:33 -15.54447 -48.35439 11017 ft 319 kts 151°
2026-05-03 20:33 -15.56425 -48.34408 10600 ft 316 kts 151°
2026-05-03 20:33 -15.58394 -48.33381 10188 ft 314 kts 151°
2026-05-03 20:34 -15.60343 -48.32372 9910 ft 308 kts 151°
2026-05-03 20:34 -15.62262 -48.31386 9936 ft 310 kts 151°
2026-05-03 20:34 -15.64215 -48.30382 9963 ft 310 kts 151°
2026-05-03 20:34 -15.66166 -48.29378 9990 ft 310 kts 151°
2026-05-03 20:35 -15.68083 -48.28390 10048 ft 306 kts 151°
2026-05-03 20:35 -15.69963 -48.27425 9983 ft 294 kts 151°
2026-05-03 20:35 -15.71792 -48.26481 9633 ft 291 kts 151°
2026-05-03 20:35 -15.73569 -48.25565 9562 ft 275 kts 151°
2026-05-03 20:36 -15.75242 -48.24705 9509 ft 260 kts 151°
2026-05-03 20:36 -15.76833 -48.23885 9457 ft 247 kts 151°
2026-05-03 20:36 -15.78327 -48.23138 9435 ft 236 kts 156°
2026-05-03 20:36 -15.79929 -48.22667 9309 ft 240 kts 168°
2026-05-03 20:37 -15.81585 -48.22416 8990 ft 244 kts 172°
2026-05-03 20:37 -15.83285 -48.22204 8643 ft 247 kts 172°
2026-05-03 20:37 -15.84961 -48.21763 8207 ft 251 kts 148°
2026-05-03 20:37 -15.86136 -48.20454 7819 ft 249 kts 117°
2026-05-03 20:38 -15.86806 -48.18803 7506 ft 246 kts 110°
2026-05-03 20:38 -15.87358 -48.17151 7202 ft 243 kts 106°
2026-05-03 20:38 -15.87682 -48.15446 6928 ft 238 kts 94°
2026-05-03 20:38 -15.87715 -48.13763 6695 ft 232 kts 88°
2026-05-03 20:39 -15.87634 -48.12157 6572 ft 211 kts 86°
2026-05-03 20:39 -15.87532 -48.10717 6490 ft 185 kts 85°
2026-05-03 20:39 -15.87442 -48.09465 6403 ft 163 kts 86°
2026-05-03 20:39 -15.87363 -48.08333 6311 ft 156 kts 86°
2026-05-03 20:40 -15.87288 -48.07225 6088 ft 153 kts 87°
2026-05-03 20:40 -15.87215 -48.06130 5890 ft 150 kts 87°
2026-05-03 20:40 -15.87145 -48.05061 5697 ft 149 kts 87°
2026-05-03 20:40 -15.87074 -48.03994 5508 ft 148 kts 87°
2026-05-03 20:41 -15.87005 -48.02928 5321 ft 147 kts 87°
2026-05-03 20:41 -15.86936 -48.01873 5136 ft 147 kts 87°
2026-05-03 20:41 -15.86867 -48.00818 4954 ft 144 kts 87°
2026-05-03 20:41 -15.86801 -47.99818 4757 ft 134 kts 88°
2026-05-03 20:42 -15.86738 -47.98861 4583 ft 133 kts 88°
2026-05-03 20:42 -15.86676 -47.97902 4422 ft 133 kts 88°
2026-05-03 20:42 -15.86612 -47.96933 4257 ft 133 kts 88°
2026-05-03 20:42 -15.86550 -47.95979 4088 ft 133 kts 88°
2026-05-03 20:43 -15.86488 -47.95015 3915 ft 133 kts 88°
2026-05-03 20:43 -15.86426 -47.94062 3727 ft 132 kts 89°
2026-05-03 20:43 -15.86368 -47.93103 3572 ft 132 kts 89°
2026-05-03 20:43 -15.86313 -47.92170 3472 ft 123 kts 89°
2026-05-03 20:44 -15.86262 -47.91376 3476 ft 94 kts 87°
2026-05-03 20:44 -15.86238 -47.90906 3485 ft 28 kts 108°
2026-05-03 20:44 -15.86332 -47.90757 3491 ft 21 kts 130°
2026-05-03 20:44 -15.86415 -47.90767 3490 ft 14 kts 258°
2026-05-03 20:45 -15.86425 -47.90859 3491 ft 12 kts 266°
2026-05-03 20:45 -15.86431 -47.90955 3489 ft 14 kts 266°
2026-05-03 20:45 -15.86439 -47.91069 3486 ft 17 kts 265°
2026-05-03 20:45 -15.86448 -47.91202 3484 ft 19 kts 266°
2026-05-03 20:46 -15.86458 -47.91344 3482 ft 20 kts 265°
2026-05-03 20:46 -15.86465 -47.91496 3480 ft 21 kts 265°
2026-05-03 20:46 -15.86474 -47.91628 3480 ft 15 kts 266°
2026-05-03 20:46 -15.86481 -47.91743 3479 ft 16 kts 266°
2026-05-03 20:47 -15.86505 -47.91815 3479 ft 7 kts 182°
2026-05-03 20:47 -15.86553 -47.91814 3480 ft 6 kts 177°
2026-05-03 20:47 -15.86587 -47.91822 3481 ft 4 kts 216°
2026-05-03 20:47 -15.86603 -47.91845 3482 ft 4 kts 245°
2026-05-03 20:48 -15.86617 -47.91893 3483 ft 6 kts 226°
2026-05-03 20:48 -15.86657 -47.91896 3484 ft 5 kts 174°
2026-05-03 20:48 -15.86688 -47.91893 3485 ft 4 kts 175°
2026-05-03 20:48 -15.86707 -47.91891 3485 ft 0 kts 175°